								Orbital elements:
2012 AA3                                                 Earth MOID = 0.1755 AU
Epoch 2012 Mar. 14.0 TT = JDT 2456000.5                 MPC
M  38.29110              (2000.0)            P               Q
n   0.36423992     Peri.  164.99481     +0.25017941     -0.95407552
a   1.9418292      Node   270.30754     +0.87047317     +0.29615605
e   0.4049197      Incl.    9.48419     +0.42389470     -0.04507215
P   2.71           H   22.4           G   0... 
							 
							
						 
						
					
				 | 
				
					
						Blobrana
					 | 
				
				
					
						0
					 | 
				
				
				
					
						
					 | 
				
				
					
						
					 | 
				
			
		
			
			
				
				
					
						 
					 | 
				
				
				
					
						
					 | 
				
				
				
					
					
					Asteroid 2011 YL63
					
					
					
					
						
					
					
						
							(Preview)
						
						
						
						
							
						
							
								Orbital elements:
2011 YL63                                                Earth MOID = 0.1688 AU
Epoch 2012 Mar. 14.0 TT = JDT 2456000.5                 MPC
M  59.89366              (2000.0)            P               Q
n   0.38619805     Peri.  204.90329     +0.61383204     +0.72138271
a   1.8675088      Node   104.65466     -0.65737085     +0.69198476
e   0.8496893      Incl.   19.35580     -0.43711989     -0.02764184
P   2.55           H   20.5... 
							 
							
						 
						
					
				 | 
				
					
						Blobrana
					 | 
				
				
					
						0
					 | 
				
				
				
					
						
					 | 
				
				
					
						
					 | 
				
			
		
			
			
				
				
					
						 
					 | 
				
				
				
					
						
					 | 
				
				
				
					
					
					Asteroid 2011 YM63
					
					
					
					
						
					
					
						
							(Preview)
						
						
						
						
							
						
							
								Orbital elements:
2011 YM63                                                Earth MOID = 0.0997 AU
Epoch 2012 Mar. 14.0 TT = JDT 2456000.5                 MPC
M  10.19435              (2000.0)            P               Q
n   0.28203769     Peri.  181.58409     -0.78565759     -0.61845859
a   2.3028445      Node   320.19795     +0.56788276     -0.71077246
e   0.5282071      Incl.    1.41852     +0.24546142     -0.33512907
P   3.49           H   22.3           G...                         
							 
							
						 
						
					
				 | 
				
					
						Blobrana
					 | 
				
				
					
						0
					 | 
				
				
				
					
						
					 | 
				
				
					
						
					 | 
				
			
		
			
			
				
				
					
						 
					 | 
				
				
				
					
						
					 | 
				
				
				
					
					
					Asteroid 2012 AW
					
					
					
					
						
					
					
						
							(Preview)
						
						
						
						
							
						
							
								Orbital elements:
2012 AW                                                  Earth MOID = 0.1190 AU
Epoch 2012 Mar. 14.0 TT = JDT 2456000.5                 MPC
M 323.84537              (2000.0)            P               Q
n   0.78635947     Peri.  140.70754     -0.70120351     +0.67181202
a   1.1624884      Node    83.26754     -0.69959584     -0.58382126
e   0.2888497      Incl.   13.90820     -0.13740197     -0.45587428
P   1.25           H   21.9           G   0... 
							 
							
						 
						
					
				 | 
				
					
						Blobrana
					 | 
				
				
					
						0
					 | 
				
				
				
					
						
					 | 
				
				
					
						
					 |